Regional Weather Roundup
Issued by NWS

Home | Current Version | Previous Version | Text Only | Print | Product List | Glossary Off
Versions: 1 2 3 4 5 6 7 8 9 10 11 12 13 14 15 16 17 18 19 20 21 22 23 24 25 26 27 28 29 30 31 32 33 34 35 36 37 38 39 40 41 42 43 44 45 46 47 48 49 50

000
ASUS45 KPSR 290410
RWRAZ

ARIZONA REGIONAL HOURLY WEATHER ROUNDUP
NATIONAL WEATHER SERVICE PHOENIX AZ
900 PM MST SAT MAR 28 2015

NOTE: FAIR INDICATES FEW OR NO CLOUDS BELOW 12,000 FEET WITH NO
SIGNIFICANT WEATHER AND/OR OBSTRUCTIONS TO VISIBILITY.

AZZ001>003-036-290500-
NORTHWEST ARIZONA

CITY           SKY/WX    TMP DP  RH WIND       PRES   REMARKS
BULLHEAD CITY  CLEAR     81  25  12 E3        29.94R
KINGMAN        CLEAR     62  23  22 S13       30.10R
$$

AZZ004>008-015-016-018-290500-
NORTH CENTRAL ARIZONA

CITY           SKY/WX    TMP DP  RH WIND       PRES   REMARKS
GRAND CANYON   CLEAR     38  19  46 NE5       30.27R WCI  34
WILLIAMS       CLEAR     57  18  21 SW7       30.36R
PRESCOTT       CLEAR     59  21  23 S6        30.21R
FLAGSTAFF      CLEAR     50  21  32 SW5       30.32R
PAYSON         CLEAR     63  19  19 CALM      30.23S
PAGE           CLEAR     73  17  12 W7        30.09R
$$

AZZ009>014-017-290500-
NORTHEAST ARIZONA

CITY           SKY/WX    TMP DP  RH WIND       PRES   REMARKS
WINSLOW        CLEAR     62  21  20 SW13      30.17R
SAINT JOHNS    CLEAR     59   8  13 SW13      30.21R
WINDOW ROCK    CLEAR     49  10  20 CALM      30.25R
SHOW LOW       CLEAR     52  10  19 S10       30.30R
$$

AZZ023-290500-
GREATER PHOENIX AREA

CITY           SKY/WX    TMP DP  RH WIND       PRES   REMARKS
PHOENIX        PTCLDY    84  19   9 CALM      29.95R
BUCKEYE        CLEAR     70  30  23 E3        29.97R
LUKE AFB       CLEAR     73  38  28 CALM      29.95R
DEER VALLEY    CLEAR     74  30  19 CALM      29.98R
SCOTTSDALE     CLEAR     79  31  17 NE3       30.00R
MESA-GATEWAY   CLEAR     72  27  18 VRB3      30.00S
CHANDLER       CLEAR     79  27  14 NE5       29.98R
$$

AZZ027-028-290500-
SOUTHWEST MARICOPA COUNTY AND PINAL COUNTY

CITY           SKY/WX    TMP DP  RH WIND       PRES   REMARKS
CASA GRANDE    PTCLDY    75  21  13 N6        29.98R
GILA BEND      FAIR      74  19  12 SE6       29.95R
$$

AZZ503-504-507>509-290500-
SOUTHEAST ARIZONA

CITY           SKY/WX    TMP DP  RH WIND       PRES   REMARKS
TUCSON         PTCLDY    74  24  15 CALM      30.07R
DAVIS-MONTHAN  PTCLDY    71  26  19 CALM      30.06R
NOGALES        PTCLDY    63  23  21 CALM      30.14R
SIERRA VISTA   PTCLDY    67  18  15 W8        30.20R
DOUGLAS        CLEAR     59  24  26 N12       30.15R
SAFFORD        CLEAR     70  12  10 NW12      30.07R
$$

AZZ020-021-025-026-031-290500-
SOUTHWEST ARIZONA

CITY           SKY/WX    TMP DP  RH WIND       PRES   REMARKS
YUMA           PTCLDY    84  34  16 CALM      29.91R
$$

CAZ031-033-041-043-047-048-061-290500-
SOUTHERN CALIFORNIA

CITY           SKY/WX    TMP DP  RH WIND       PRES   REMARKS
DOWNTOWN L.A.  CLEAR     63  58  83 CALM      30.03R
L.A. AIRPORT   PTCLDY    60  58  92 CALM      30.04R
SAN DIEGO      MOCLDY    65  59  81 NW7       30.06R
BURBANK        CLEAR     70  53  54 S3        30.03R
ONTARIO        PTCLDY    72  47  40 W6        30.04R
RIVERSIDE      PTCLDY    73  41  31 CALM      30.04R
PALM SPRINGS   PTCLDY    89  29  11 SW8G22    29.95R
EL CENTRO NAS  PTCLDY    84  30  14 SW12      29.91R
IMPERIAL       PTCLDY    84  34  16 SW10      29.90R
BLYTHE         PTCLDY    80  38  22 W3        29.92R
NEEDLES        CLEAR     82  14   8 W10       29.94R
$$

NVZ020-UTZ003-290500-
SOUTHERN NEVADA-UTAH

CITY           SKY/WX    TMP DP  RH WIND       PRES   REMARKS
LAS VEGAS      CLEAR     79  18  10 S12       29.96R
SALT LAKE CITY PTCLDY    58  27  30 NW12      30.19R
$$

NMZ009-TXZ055-290500-
NEW MEXICO-WEST TEXAS

CITY           SKY/WX    TMP DP  RH WIND       PRES   REMARKS
ALBUQUERQUE    CLEAR     66   9  10 W8        30.13R
EL PASO        CLEAR     74   1   6 E5        30.09R
$$


........................KEY........................
SKY/WX - SKY CONDITION/WEATHER
TMP    - TEMPERATURE IN FAHRENHEIT
DP     - DEW POINT IN FAHRENHEIT
RH     - RELATIVE HUMIDITY IN PERCENT
WIND   - DIRECTION AND SPEED IN MILES PER HOUR (MPH)
VRB    - VARIABLE WIND DIRECTION
PRES   - MEAN SEA LEVEL PRESSURE IN INCHES OF MERCURY
         F - FALLING PRESSURE   R - RISING PRESSURE
         S - STEADY PRESSURE
VSB    - VISIBILITY IN MILES
HX     - HEAT INDEX IN FAHRENHEIT
WCI    - WIND CHILL INDEX IN FAHRENHEIT
TC     - TEMPERATURE IN CELSIUS WHICH IS ALSO KNOWN AS
         TEMPERATURE IN CENTIGRADE
AFB    - AIR FORCE BASE
         LUKE AFB IS LUKE AIR FORCE BASE
         DAVIS-MONTHAN IS DAVIS-MONTHAN AIR FORCE BASE
NAS    - NAVAL AIR STATION
         EL CENTRO NAS IS EL CENTRO NAVAL AIR STATION
N/A    - NOT AVAILABLE



USA.gov is the U.S. government's official web portal to all federal, state and local government web resources and services.